Orbital Elements at Epoch 2459200.5 (2020-Dec-17.0) TDB
Reference: JPL 33 (heliocentric ecliptic J2000)
Element | Value | Uncertainty (1-sigma) | Units |
e | .06143014768257921 | 1.632e-08 | |
a | 2.798899485777486 | 1.4063e-08 | au |
q | 2.62696267701748 | 5.0965e-08 | au |
i | 7.612975775656512 | 5.6057e-07 | deg |
node | 258.827820947954 | 1.0999e-05 | deg |
peri | 48.34368401151313 | 3.5174e-05 | deg |
M | 252.5554337894955 | 3.3626e-05 | deg |
tp | 2459710.959553709905 (2022-May-11.45955371) | 0.00016081 | TDB |
period | 1710.327900394088 4.68 | 1.289e-05 3.529e-08 | d yr |
n | .2104859541360753 | 1.5864e-09 | deg/d |
Q | 2.970836294537492 | 1.4927e-08 | au |
|
| | Orbit Determination Parameters
Additional Information
|